Change the Weather History Date:

Tuesday, March 12, 2013

  Actual Average Record
Temperature  
Mean Temperature 55 °F 56 °F  
Max Temperature 68 °F 69 °F 88 °F (1955)
Min Temperature 42 °F 43 °F 25 °F (1969)
Degree Days  
Heating Degree Days 10 10  
Month to date heating degree days 210 130  
Since 1 July heating degree days 1884 2055  
Cooling Degree Days 0 1  
Month to date cooling degree days 0 1  
Year to date cooling degree days 18 4  
Growing Degree Days 5 (Base 50)    
Moisture  
Dew Point 44 °F    
Average Humidity 63    
Maximum Humidity 100    
Minimum Humidity 26    
Precipitation  
Precipitation 0.16 in 0.14 in 3.52 in (1980)
Month to date precipitation 0.95 1.86  
Year to date precipitation 15.87 10.46  
Snow  
Snow 0.00 in 0.00 in 0.00 in (2002)
Month to date snowfall 0.0 0.1  
Since 1 July snowfall 0.0 0.6  
Snow Depth -    
Sea Level Pressure  
Sea Level Pressure 29.91 in    
Wind  
Wind Speed 9 mph (WNW)    
Max Wind Speed 17 mph    
Max Gust Speed 23 mph    
Visibility 8 miles    
Events Rain    
T = Trace of Precipitation, MM = Missing Value Source: NWS Daily Summary

Daily Weather History Graph

Daily Weather History Graph

Search for Another Location

Airport or City:

Trip Planner

Search our weather history database for the weather conditions in past years. The results will help you decide how hot, cold, wet, or windy it might be!

Date:

Astronomy

Mar. 12, 2013 Rise Set
Actual Time 7:48 AM EDT 7:40 PM EDT
Civil Twilight 7:23 AM EDT 8:05 PM EDT
Nautical Twilight 6:55 AM EDT 8:33 PM EDT
Astronomical Twilight 6:26 AM EDT 9:02 PM EDT
Moon 7:59 AM EDT (3/12) 8:47 PM EDT (3/12)
Length of Visible Light 12h 41m
Length of Day
11h 52m
New Moon, 1% of the Moon is Illuminated
Mar 12
New Moon
Mar 19
First Quarter
Mar 27
Full
Apr 3
Last Quarter
Apr 10
New

Hourly Weather History & Observations

Time (EDT) Temp. Windchill Dew Point Humidity Pressure Visibility Wind Dir Wind Speed Gust Speed Precip Events Conditions
12:51 AM 60.8 °F - 60.8 °F 100% 29.82 in 2.0 mi South 9.2 mph - 0.12 in Rain Heavy Rain
12:53 AM 60.1 °F - 60.1 °F 100% 29.81 in 2.0 mi South 6.9 mph - 0.12 in Rain Heavy Rain
1:03 AM 60.8 °F - 59.0 °F 94% 29.82 in 4.0 mi SSW 9.2 mph - 0.03 in Rain Light Rain
1:14 AM 60.8 °F - 59.0 °F 94% 29.81 in 2.5 mi South 6.9 mph - 0.10 in Rain Heavy Rain
1:17 AM 60.8 °F - 60.8 °F 100% 29.81 in 3.0 mi SSW 8.1 mph - 0.12 in Rain Rain
1:25 AM 60.8 °F - 59.0 °F 94% 29.81 in 6.0 mi SSW 9.2 mph - 0.13 in Rain Light Rain
1:37 AM 60.8 °F - 59.0 °F 94% 29.81 in 10.0 mi SSW 6.9 mph - 0.14 in   Overcast
1:41 AM 60.8 °F - 59.0 °F 94% 29.81 in 10.0 mi SW 4.6 mph - 0.14 in   Overcast
1:53 AM 60.1 °F - 60.1 °F 100% 29.79 in 4.0 mi SSW 5.8 mph - 0.14 in Rain Light Rain
2:21 AM 55.4 °F - 55.4 °F 100% 29.83 in 7.0 mi NW 16.1 mph 23.0 mph 0.02 in   Overcast
2:38 AM 55.4 °F - 55.4 °F 100% 29.83 in 9.0 mi NW 9.2 mph - 0.02 in   Overcast
2:53 AM 55.0 °F - 54.0 °F 96% 29.83 in 10.0 mi WNW 9.2 mph - 0.02 in   Overcast
3:01 AM 55.4 °F - 53.6 °F 94% 29.83 in 7.0 mi NW 9.2 mph - N/A   Overcast
3:23 AM 53.6 °F - 53.6 °F 100% 29.83 in 6.0 mi NW 8.1 mph - N/A   Overcast
3:36 AM 53.6 °F - 53.6 °F 100% 29.83 in 4.0 mi NNW 6.9 mph - N/A   Overcast
3:53 AM 53.1 °F - 53.1 °F 100% 29.83 in 5.0 mi NNW 10.4 mph - N/A   Overcast
4:33 AM 51.8 °F - 48.2 °F 88% 29.85 in 10.0 mi NW 12.7 mph - 0.00 in   Overcast
4:53 AM 50.0 °F - 48.9 °F 96% 29.85 in 10.0 mi NW 13.8 mph 19.6 mph 0.00 in   Overcast
5:28 AM 48.2 °F - 44.6 °F 87% 29.86 in 10.0 mi NW 16.1 mph - N/A   Overcast
5:51 AM 46.4 °F 40.4 °F 44.6 °F 93% 29.87 in 10.0 mi NW 13.8 mph 18.4 mph N/A   Overcast
5:53 AM 46.9 °F - 44.1 °F 90% 29.87 in 10.0 mi NW 12.7 mph 18.4 mph N/A   Overcast
6:20 AM 44.6 °F 39.7 °F 42.8 °F 93% 29.89 in 10.0 mi WNW 9.2 mph - N/A   Overcast
6:53 AM 44.1 °F 39.0 °F 41.0 °F 89% 29.90 in 10.0 mi NW 9.2 mph - N/A   Overcast
7:14 AM 42.8 °F 37.5 °F 39.2 °F 87% 29.91 in 10.0 mi NW 9.2 mph - N/A   Scattered Clouds
7:53 AM 42.1 °F 36.6 °F 39.0 °F 89% 29.93 in 10.0 mi NW 9.2 mph - N/A   Partly Cloudy
8:21 AM 42.8 °F 37.5 °F 39.2 °F 87% 29.95 in 10.0 mi NW 9.2 mph - N/A   Mostly Cloudy
8:53 AM 42.1 °F 36.1 °F 37.9 °F 85% 29.96 in 10.0 mi NW 10.4 mph - N/A   Overcast
9:37 AM 44.6 °F 41.4 °F 39.2 °F 81% 29.97 in 10.0 mi NW 5.8 mph - N/A   Scattered Clouds
9:53 AM 45.0 °F 40.6 °F 39.0 °F 80% 29.96 in 10.0 mi WNW 8.1 mph - N/A   Partly Cloudy
10:53 AM 48.9 °F - 37.9 °F 66% 29.97 in 10.0 mi NW 9.2 mph - N/A   Clear
11:53 AM 54.0 °F - 39.9 °F 59% 29.97 in 10.0 mi Variable 3.5 mph - N/A   Clear
12:53 PM 57.0 °F - 37.9 °F 49% 29.97 in 10.0 mi NW 12.7 mph - N/A   Clear
1:53 PM 60.1 °F - 37.0 °F 42% 29.97 in 10.0 mi West 11.5 mph - N/A   Clear
2:53 PM 64.0 °F - 36.0 °F 35% 29.96 in 10.0 mi NW 9.2 mph 21.9 mph N/A   Clear
3:53 PM 66.0 °F - 32.0 °F 28% 29.94 in 10.0 mi NW 12.7 mph 21.9 mph N/A   Clear
4:53 PM 66.9 °F - 33.1 °F 28% 29.94 in 10.0 mi NNW 11.5 mph 19.6 mph N/A   Clear
5:53 PM 66.9 °F - 30.9 °F 26% 29.96 in 10.0 mi NNW 8.1 mph - N/A   Clear
6:53 PM 63.0 °F - 28.9 °F 28% 29.98 in 10.0 mi NW 13.8 mph - N/A   Clear
7:53 PM 57.9 °F - 32.0 °F 37% 30.00 in 10.0 mi NW 6.9 mph - N/A   Clear
8:53 PM 55.0 °F - 33.1 °F 43% 30.03 in 10.0 mi NW 6.9 mph - N/A   Clear
9:53 PM 54.0 °F - 33.1 °F 45% 30.06 in 10.0 mi NW 9.2 mph - N/A   Clear
10:53 PM 53.1 °F - 32.0 °F 45% 30.07 in 10.0 mi NW 8.1 mph - N/A   Clear
11:53 PM 51.1 °F - 33.1 °F 50% 30.09 in 10.0 mi NW 5.8 mph - N/A   Clear